Location: Corralito
(10.2667°N, 66.9500°W)
Time: 10:28:04
(UTC+00:00)

GPS 2-15 Rocket1 - Pass Details

Date: 08 December 2023
Orbit: 617 x 666 km, 19.8° (Epoch: 02 March)

Event Time Altitude Azimuth Distance (km) Brightness Sun altitude
Rises 23:35:49 0° 226° (SW) 2,947 7.7 -21.4°
Reaches altitude 10° 23:38:36 10° 212° (SSW) 2,027 6.4 -22.0°
Maximum altitude 23:42:24 24° 159° (SSE) 1,327 4.7 -22.9°
Enters shadow 23:42:57 23° 148° (SSE) 1,343 4.6 -23.0°
